Weather at Tripolis Airport

Public forecast

Using degrees Celsius for public forecast. Weather courtesy of forecast.io.

Closest aviation weather report (METAR) to Tripolis Airport

Closest report is Kalamata Airport, 33.1 nm (61.3 km) SSW. Retrieved 2021/09/17 03:20 UTC (22 minutes ago):

LGKL 170320Z 35004KT CAVOK 20/15 Q1016

Closest aviation forecast (TAF) to Tripolis Airport

Forecast is more than 12 hours old.

Closest forecast is Kalamata Airport, 33.1 nm (61.3 km) SSW. Retrieved 2020/03/18 09:39 UTC (2 years ago):

TAF LGKL 180800Z 1809/1821 16008KT 9999 FEW030 TEMPO 1817/1818 SCT020 BKN080